Location: Seattle
(47.6064°N, 122.3308°W)
Time: 01:47:46
(UTC-08:00)

Tiros 1 - Pass Details

Date: 03 December 2020
Orbit: 630 x 663 km, 48.4° (Epoch: 28 January)

Event Time Altitude Azimuth Distance (km) Brightness Sun altitude
Rises 17:00:49 0° 277° (W) 2,996 11.7 -7.0°
Reaches altitude 10° 17:03:10 10° 278° (W) 2,081 10.7 -7.4°
Maximum altitude 17:07:59 85° 6° (N) 668 7.2 -8.1°
Drops below altitude 10° 17:12:47 10° 97° (E) 2,065 9.2 -8.8°
Enters shadow 17:13:20 - 97° (E) 2,281 9.4 -8.9°
Sets 17:15:07 0° 98° (E) 2,971 - -9.2°
